Flag for Canada Weather past 2 weeks in Qikiqtarjuaq, Nunavut Territory, Canada

Now
-6 °F

Snow flurries. Partly sunny.


Feels Like: -19 °F
Forecast: -15 / -2 °F
Wind: 6 mph from Northeast

Location: Broughton Island Airport

Current Time: Mar 29, 2015 at 9:30:25 AM

Latest Report: Mar 29, 2015 at 9:00 AM


Visibility: 10 mi

Pressure: 29.64 "Hg

Humidity: 70%

Dew point: -13 °F

Location of QikiqtarjuaqLocation

Historic Weather in Qikiqtarjuaq — Graph

°F

Qikiqtarjuaq temperature yesterday

Maximum temperature yesterday: -2 °F (at 12:00 PM)
Minimum temperature yesterday: -13 °F (at 4:00 AM)
Average temperature yesterday: -7 °F

Past Weeks' High & Low Weather Summary

 TemperatureHumidityPressure
High14 °F (Mar 18, 1:00 PM)92% (Mar 17, 3:59 AM)30.06 "Hg (Mar 17, 3:59 AM)
Low-24 °F (Mar 15, 6:00 AM)54% (Mar 14, 10:00 AM)29.21 "Hg (Mar 24, 7:00 PM)
Average-1 °F77%29.66 "Hg
* Reported Mar 14 8:00 AM — Mar 29 8:00 AM, Qikiqtarjuaq, Weather by CustomWeather, © 2015

Note: Actual official high and low records may vary slightly from our data, if they occured in-between our weather recording intervals... More about our weather records

Advertising

Qikiqtarjuaq weather history for previous 24 hours

 ConditionsComfort  
Time TempWeatherWind HumidityBarometerVisibility
8:00 AM
Sun, Mar 29
-6 °FSnow flurries. Broken clouds.8 mph77%29.63 "Hg10 mi
7:00 AM-6 °FSnow flurries. Broken clouds.9 mph77%29.63 "Hg8 mi
6:00 AM-6 °FSnow flurries. Passing clouds.10 mph84%29.62 "Hg8 mi
5:02 AM-4 °FLight snow. Overcast.7 mph77%29.61 "Hg2 mi
4:00 AM-6 °FLight snow. Mostly cloudy.3 mph77%29.60 "Hg8 mi
3:46 AM-8 °FLight snow. Overcast.2 mph77%29.60 "Hg6 mi
3:00 AM-8 °FLight snow. Overcast.No wind84%29.59 "Hg9 mi
2:00 AM-8 °FLight snow. Overcast.2 mph84%29.58 "Hg7 mi
1:03 AM-8 °FLight snow. Mostly cloudy.2 mph77%29.57 "Hg2 mi
12:00 AM-6 °FLight snow. Overcast.No wind84%29.57 "Hg2 mi
11:00 PM
Sat, Mar 28
-8 °FLight snow. Mostly cloudy.No wind77%29.56 "Hg4 mi
10:00 PM-9 °FLight snow. Overcast.No wind84%29.55 "Hg9 mi
9:02 PM-9 °FMostly cloudy.No wind77%29.55 "Hg9 mi
9:00 PM-9 °FLight snow. Mostly cloudy.No wind77%29.55 "Hg9 mi
8:00 PM-9 °FOvercast.2 mph77%29.54 "Hg6 mi
7:00 PM-6 °FLight snow. Sunny.No wind70%29.53 "Hg9 mi
6:00 PM-6 °FSunny.8 mph77%29.52 "Hg9 mi
5:00 PM-4 °FLight snow. Scattered clouds.12 mph71%29.50 "Hg12 mi
4:00 PM-4 °FLight snow. Passing clouds.9 mph77%29.50 "Hg10 mi
3:00 PM-2 °FLight snow. Scattered clouds.12 mph71%29.49 "Hg8 mi
2:00 PM-2 °FLight snow. Partly sunny.8 mph71%29.48 "Hg6 mi
1:00 PM-2 °FLight snow. Partly sunny.5 mph71%29.48 "Hg6 mi
12:00 PM-2 °FLight snow. Overcast.8 mph71%29.48 "Hg6 mi
11:00 AM-4 °FLight snow. Overcast.7 mph71%29.48 "Hg6 mi
10:00 AM-6 °FLight snow. Overcast.10 mph77%29.48 "Hg4 mi
9:00 AM-6 °FLight snow. Overcast.10 mph77%29.48 "Hg4 mi
Weather by CustomWeather, © 2015

See weather overviewHow to use our weather pages